#timestamp,LO_Frequency,Hit,StdDev 
1523667615.3,286047004.4,N
1523667635.1,286047000.0,N
1523667636.0,286047000.0,N
1523667655.8,286046999.8,N
1523667675.7,286047000.4,N
1523667695.5,286047002.6,N
1523667715.3,286047001.7,N
1523667735.2,286047001.7,N
1523667755.0,286047003.6,N
1523667755.9,286047003.6,N
1523667775.8,286047003.0,N
1523667795.6,286047004.2,N
1523667815.4,286047002.1,N
1523667835.3,286047002.7,N
1523667855.1,286046999.8,N
1523667875.9,286047002.8,N
1523667895.7,286047000.4,N
1523667915.5,286047001.6,N
1523667935.4,286047004.3,N
1523667955.2,286047005.9,Y
1523667975.0,286047002.0,P
1523667976.0,286047002.0,P
1523667995.8,286047001.6,P
1523668015.6,286047000.1,N
1523668035.5,286046999.4,N
1523668055.3,286046998.3,N
1523668075.1,286047000.2,N
1523668095.9,286047002.2,N
1523668115.7,286047000.1,N
1523668135.6,286047002.8,N
1523668155.4,286047000.8,N
1523668175.2,286046998.5,N
1523668195.1,286047001.2,N
1523668196.0,286047001.2,N
1523668215.8,286047000.6,N
1523668235.7,286047000.7,N
1523668255.5,286046998.8,N
1523668275.3,286046998.7,N
1523668295.2,286046998.7,N
1523668315.9,286046998.2,N
1523668335.7,286046999.3,N
1523668355.6,286046996.5,N
1523668375.4,286046997.9,N
1523668395.2,286046999.5,N
1523668415.1,286046999.4,N
1523668416.0,286046999.4,N
1523668435.8,286047000.8,N
1523668455.7,286047000.3,N
1523668475.5,286047000.5,N
1523668495.3,286046998.6,N
1523668515.2,286046998.7,N
1523668535.0,286046998.4,N
1523668535.9,286046998.4,N
1523668555.8,286046998.1,N
1523668575.6,286046998.1,N
1523668595.4,286047000.2,N
1523668615.3,286047000.3,N
1523668635.1,286047002.4,N
1523668655.8,286046999.9,N
1523668675.7,286047001.1,N
1523668695.5,286046999.0,N
1523668715.4,286046999.3,N
1523668735.2,286046998.9,N
1523668755.0,286046998.7,N
1523668755.9,286046998.7,N
1523668775.8,286046998.9,N
1523668795.6,286046999.0,N
1523668815.4,286046999.3,N
1523668835.3,286046998.9,N
1523668855.1,286047000.5,N
1523668875.9,286046998.2,N
1523668895.7,286046998.2,N
1523668915.5,286047000.5,N
1523668935.4,286047000.9,N
1523668955.2,286046999.9,N
1523668975.0,286047000.5,N
1523668975.9,286047000.5,N
1523668995.8,286047000.6,N
1523669015.6,286047001.1,N
1523669035.5,286046998.8,N
1523669085.3,286047000.9,E
1523669095.2,286047000.6,N
1523669115.1,286046999.3,P
1523669116.0,286046999.3,N
1523669135.8,286046999.6,N
1523669155.7,286046996.6,Y
1523669175.5,286046999.2,P
1523669195.4,286046996.6,P
1523669215.2,286046997.7,N
1523669235.0,286046997.7,N
1523669235.9,286046997.7,N
1523669255.8,286046999.2,N
1523669275.6,286046999.6,N
1523669295.4,286046999.5,N
1523669315.3,286046999.1,N
1523669335.1,286046999.6,N
1523669355.9,286046996.9,Y
1523669375.7,286046999.3,P
1523669395.5,286046996.5,P
1523669415.4,286046999.6,N
1523669435.2,286046997.1,N
1523669455.0,286046997.2,N
1523669455.9,286046997.2,N
1523669475.8,286046997.8,N
1523669495.6,286046997.3,N
1523669515.5,286046997.0,N
1523669535.3,286046996.6,Y
1523669555.1,286047000.3,P
1523669575.9,286047001.0,N
1523669595.7,286047000.6,N
1523669615.6,286046998.3,N
1523669635.4,286046998.9,N
1523669655.2,286046998.7,N
1523669675.1,286046998.4,N
1523669676.0,286046998.4,N
1523669695.8,286046998.6,N
1523669715.6,286046998.1,N
1523669735.5,286047000.8,N
1523669755.3,286047002.3,N
1523669775.2,286047000.3,N
1523669795.9,286047001.2,N
1523669815.7,286046998.7,N
1523669835.6,286046998.6,N
1523669855.4,286046998.8,N
1523669875.2,286046999.2,N
1523669895.1,286046998.4,N
1523669896.0,286046998.4,N
1523669915.8,286046998.9,N
1523669935.7,286046998.3,N
1523669955.5,286047001.2,N
1523669975.3,286046998.2,N
1523669995.2,286046999.8,N
1523670015.0,286047000.3,N
1523670015.9,286047000.3,N
1523670035.8,286047002.8,N
1523670055.6,286047000.5,N
1523670075.4,286047001.2,N
1523670095.6,286047002.8,N
1523670115.5,286047000.8,N
1523670135.3,286047001.1,N
1523670155.1,286047000.9,N
1523670175.9,286046999.0,N
1523670195.7,286046998.5,N
1523670215.6,286047000.7,N
1523670235.4,286047001.2,N
1523670255.2,286047001.2,N
1523670275.1,286047000.1,N
1523670276.0,286047000.1,N
1523670295.8,286047000.4,N
1523670315.6,286046999.1,N
1523670335.5,286046998.7,N
1523670355.3,286047001.1,N
1523670375.2,286046998.5,N
1523670395.9,286046998.4,N
1523670415.7,286046998.9,N
1523670435.6,286046998.5,N
1523670455.4,286046999.3,N
1523670475.2,286046999.4,N
1523670495.1,286046996.8,N
1523670496.0,286046996.8,N
1523670515.8,286046996.6,N
1523670535.7,286046999.2,N
1523670555.5,286046997.2,N
1523670575.3,286046997.0,N
1523670595.2,286046996.9,N
1523670615.9,286046997.7,N
1523670635.7,286046995.4,N
1523670655.6,286046997.0,N
1523670675.4,286046998.9,N
1523670695.3,286046998.8,N
1523670715.1,286046999.4,N
1523670716.0,286046999.4,N
1523670735.8,286046999.6,N
1523670755.7,286046998.7,N
1523670775.5,286046999.5,N
1523670795.3,286046996.8,N
1523670815.2,286046999.2,N
1523670835.0,286046996.6,N
1523670835.9,286046996.6,N
1523670855.8,286046999.1,N
1523670875.6,286046996.7,N
1523670895.4,286046999.5,N
1523670915.3,286046999.2,N
1523670935.1,286047001.2,N
1523670955.9,286046999.4,N
1523670975.7,286046996.5,N
1523670995.5,286046998.7,N
1523671015.4,286046997.3,N
1523671035.2,286046999.0,N
1523671055.0,286047000.7,N
1523671055.9,286047000.7,N
1523671075.8,286047002.0,N
1523671095.6,286047001.6,N
1523671115.5,286047001.7,N
1523671135.3,286047002.8,N
1523671155.1,286047002.3,N
1523671175.9,286047001.2,N
1523671195.7,286047000.5,N
